When you browse on this site, cookies collect data to enhance your experience and personalize the content and advertising you see.
Visit our Privacy Policy to learn more. By continuing to use the site, you agree to this use of cookies and data.
  • En España
  • Lista de países
  • Para 7 días
  • Temperatura del agua
  • El tiempo en el mapa
  • Informadores
  • user-avatar
    Iniciar sesión

    Tiempo cada hora Winchester

    Hoy, 4 Abril, Sábado

    Tiempo Temperatura Precipitaciones Viento Presión Humedad
    00:00 +5°C° 0 mm 0 mps 759 mmHg 88%
    01:00 +6°C° 0 mm 1 mps 759 mmHg 89%
    02:00 +6°C° 0 mm 1 mps 759 mmHg 89%
    03:00 +6°C° 0 mm 1 mps 759 mmHg 90%
    04:00 +6°C° 0 mm 1 mps 759 mmHg 91%
    05:00 +6°C° 0 mm 1 mps 759 mmHg 92%
    06:00 +5°C° 0 mm 2 mps 759 mmHg 93%
    07:00 +7°C° 0 mm 2 mps 759 mmHg 87%
    08:00 +9°C° 0 mm 3 mps 759 mmHg 81%
    09:00 +11°C° 0 mm 4 mps 759 mmHg 76%
    10:00 +11°C° 0 mm 4 mps 759 mmHg 72%
    11:00 +12°C° 0 mm 5 mps 759 mmHg 69%
    12:00 +12°C° 0 mm 5 mps 759 mmHg 66%
    13:00 +12°C° 0 mm 5 mps 759 mmHg 65%
    14:00 +12°C° 0 mm 5 mps 758 mmHg 64%
    15:00 +12°C° 0 mm 5 mps 758 mmHg 63%
    16:00 +11°C° 0 mm 4 mps 758 mmHg 69%
    17:00 +10°C° 0 mm 3 mps 757 mmHg 75%
    18:00 +9°C° 0 mm 3 mps 757 mmHg 81%
    19:00 +8°C° 0 mm 3 mps 757 mmHg 85%
    20:00 +7°C° 0 mm 4 mps 757 mmHg 88%
    21:00 +6°C° 0 mm 4 mps 758 mmHg 91%
    22:00 +6°C° 0 mm 4 mps 757 mmHg 90%
    23:00 +6°C° 0 mm 4 mps 757 mmHg 90%

    Mañana, 5 Abril, Domingo

    Tiempo Temperatura Precipitaciones Viento Presión Humedad
    00:00 +7°C° 0 mm 5 mps 757 mmHg 89%
    01:00 +7°C° 0 mm 5 mps 756 mmHg 89%
    02:00 +7°C° 0 mm 5 mps 756 mmHg 89%
    03:00 +5°C° 0 mm 6 mps 755 mmHg 89%
    04:00 +5°C° 0 mm 6 mps 755 mmHg 90%
    05:00 +5°C° 0 mm 6 mps 754 mmHg 91%
    06:00 +6°C° 0 mm 5 mps 754 mmHg 92%
    07:00 +8°C° 0 mm 6 mps 754 mmHg 87%
    08:00 +9°C° 0 mm 6 mps 754 mmHg 82%
    09:00 +11°C° 0 mm 7 mps 753 mmHg 77%
    10:00 +12°C° 0 mm 7 mps 753 mmHg 74%
    11:00 +12°C° 0 mm 7 mps 753 mmHg 72%
    12:00 +14°C° 0 mm 7 mps 752 mmHg 69%
    13:00 +15°C° 0 mm 7 mps 752 mmHg 69%
    14:00 +15°C° 0 mm 7 mps 752 mmHg 69%
    15:00 +15°C° 0 mm 7 mps 751 mmHg 69%
    16:00 +15°C° 0 mm 7 mps 751 mmHg 72%
    17:00 +14°C° 0 mm 7 mps 751 mmHg 75%
    18:00 +14°C° 0 mm 6 mps 751 mmHg 79%
    19:00 +12°C° 0 mm 7 mps 751 mmHg 78%
    20:00 +11°C° 0 mm 7 mps 751 mmHg 78%
    21:00 +11°C° 0 mm 7 mps 750 mmHg 78%
    22:00 +11°C° 0 mm 7 mps 751 mmHg 80%
    23:00 +11°C° 0 mm 8 mps 751 mmHg 82%

    Pasado mañana, 6 Abril, Lunes

    Tiempo Temperatura Precipitaciones Viento Presión Humedad
    00:00 +11°C° 0 mm 8 mps 751 mmHg 84%
    01:00 +11°C° 0 mm 7 mps 751 mmHg 87%
    02:00 +10°C° 0 mm 6 mps 751 mmHg 89%
    03:00 +10°C° 0 mm 6 mps 751 mmHg 92%
    04:00 +10°C° 0 mm 5 mps 752 mmHg 93%
    05:00 +10°C° 0 mm 4 mps 752 mmHg 94%
    06:00 +8°C° 0 mm 4 mps 753 mmHg 95%
    07:00 +10°C° 0 mm 4 mps 753 mmHg 88%
    08:00 +11°C° 0 mm 4 mps 754 mmHg 82%
    09:00 +12°C° 0 mm 4 mps 755 mmHg 76%
    10:00 +12°C° 0.1 mm 4 mps 755 mmHg 73%
    11:00 +13°C° 0.1 mm 4 mps 756 mmHg 70%
    12:00 +13°C° 0.1 mm 4 mps 757 mmHg 67%
    13:00 +13°C° 0.1 mm 5 mps 757 mmHg 66%
    14:00 +13°C° 0.1 mm 5 mps 758 mmHg 65%
    15:00 +14°C° 0.1 mm 5 mps 759 mmHg 64%
    16:00 +13°C° 0.1 mm 4 mps 759 mmHg 70%
    17:00 +12°C° 0.1 mm 4 mps 760 mmHg 76%
    18:00 +11°C° 0.1 mm 3 mps 760 mmHg 82%
    19:00 +9°C° 0 mm 3 mps 761 mmHg 83%
    20:00 +8°C° 0 mm 3 mps 762 mmHg 85%
    21:00 +5°C° 0 mm 3 mps 763 mmHg 86%
    22:00 +6°C° 0 mm 2 mps 764 mmHg 85%
    23:00 +5°C° 0 mm 2 mps 764 mmHg 85%

    7 Abril, Martes

    Tiempo Temperatura Precipitaciones Viento Presión Humedad
    00:00 +5°C° 0 mm 2 mps 765 mmHg 84%
    01:00 +5°C° 0 mm 2 mps 765 mmHg 84%
    02:00 +5°C° 0 mm 1 mps 765 mmHg 85%
    03:00 +5°C° 0 mm 1 mps 765 mmHg 85%
    04:00 +5°C° 0 mm 1 mps 766 mmHg 85%
    05:00 +4°C° 0 mm 0 mps 766 mmHg 84%
    06:00 +4°C° 0 mm 0 mps 767 mmHg 84%
    07:00 +6°C° 0 mm 0 mps 767 mmHg 78%
    08:00 +8°C° 0 mm 0 mps 767 mmHg 72%
    09:00 +10°C° 0 mm 0 mps 768 mmHg 66%
    10:00 +12°C° 0 mm 1 mps 768 mmHg 61%
    11:00 +13°C° 0 mm 1 mps 768 mmHg 56%
    12:00 +15°C° 0 mm 1 mps 768 mmHg 51%
    13:00 +15°C° 0 mm 1 mps 768 mmHg 51%
    14:00 +15°C° 0 mm 2 mps 768 mmHg 52%
    15:00 +15°C° 0 mm 2 mps 768 mmHg 52%
    16:00 +14°C° 0 mm 2 mps 767 mmHg 59%
    17:00 +13°C° 0 mm 2 mps 767 mmHg 66%
    18:00 +12°C° 0 mm 1 mps 767 mmHg 73%
    19:00 +10°C° 0 mm 1 mps 767 mmHg 76%
    20:00 +9°C° 0 mm 1 mps 767 mmHg 78%
    21:00 +8°C° 0 mm 1 mps 768 mmHg 81%
    22:00 +7°C° 0 mm 1 mps 768 mmHg 82%
    23:00 +7°C° 0 mm 1 mps 768 mmHg 83%

    8 Abril, Miércoles

    Tiempo Temperatura Precipitaciones Viento Presión Humedad
    00:00 +6°C° 0 mm 2 mps 768 mmHg 84%
    01:00 +6°C° 0 mm 2 mps 767 mmHg 85%
    02:00 +6°C° 0 mm 2 mps 767 mmHg 87%
    03:00 +5°C° 0 mm 2 mps 767 mmHg 89%
    04:00 +5°C° 0 mm 2 mps 767 mmHg 90%
    05:00 +5°C° 0 mm 2 mps 767 mmHg 90%
    06:00 +6°C° 0 mm 2 mps 767 mmHg 91%
    07:00 +8°C° 0 mm 2 mps 766 mmHg 85%
    08:00 +10°C° 0 mm 3 mps 766 mmHg 79%
    09:00 +13°C° 0 mm 3 mps 766 mmHg 73%
    10:00 +14°C° 0 mm 3 mps 766 mmHg 69%
    11:00 +16°C° 0 mm 3 mps 765 mmHg 64%
    12:00 +17°C° 0 mm 4 mps 765 mmHg 60%
    13:00 +18°C° 0 mm 4 mps 765 mmHg 60%
    14:00 +18°C° 0 mm 4 mps 764 mmHg 60%
    15:00 +18°C° 0 mm 4 mps 764 mmHg 61%
    16:00 +17°C° 0 mm 3 mps 763 mmHg 67%
    17:00 +16°C° 0 mm 3 mps 763 mmHg 73%
    18:00 +14°C° 0 mm 3 mps 763 mmHg 80%
    19:00 +13°C° 0 mm 3 mps 763 mmHg 83%
    20:00 +12°C° 0 mm 3 mps 763 mmHg 86%
    21:00 +10°C° 0 mm 3 mps 763 mmHg 89%
    22:00 +10°C° 0 mm 3 mps 763 mmHg 89%
    23:00 +10°C° 0 mm 3 mps 763 mmHg 89%

    9 Abril, Jueves

    Tiempo Temperatura Precipitaciones Viento Presión Humedad
    00:00 +10°C° 0 mm 3 mps 762 mmHg 89%
    01:00 +10°C° 0 mm 3 mps 762 mmHg 89%
    02:00 +10°C° 0 mm 3 mps 761 mmHg 90%
    03:00 +9°C° 0 mm 3 mps 761 mmHg 90%
    04:00 +9°C° 0 mm 3 mps 761 mmHg 90%
    05:00 +9°C° 0 mm 3 mps 761 mmHg 89%
    06:00 +9°C° 0 mm 3 mps 761 mmHg 89%
    07:00 +11°C° 0 mm 3 mps 760 mmHg 84%
    08:00 +13°C° 0 mm 4 mps 760 mmHg 78%
    09:00 +15°C° 0 mm 4 mps 760 mmHg 73%
    10:00 +17°C° 0 mm 4 mps 760 mmHg 69%
    11:00 +17°C° 0 mm 5 mps 760 mmHg 65%
    12:00 +19°C° 0 mm 5 mps 759 mmHg 62%
    13:00 +19°C° 0 mm 5 mps 759 mmHg 62%
    14:00 +19°C° 0 mm 5 mps 759 mmHg 62%
    15:00 +17°C° 0 mm 5 mps 758 mmHg 62%
    16:00 +17°C° 0 mm 4 mps 758 mmHg 67%
    17:00 +16°C° 0 mm 3 mps 758 mmHg 73%
    18:00 +14°C° 0 mm 3 mps 757 mmHg 79%
    19:00 +14°C° 0 mm 2 mps 758 mmHg 78%
    20:00 +13°C° 0 mm 2 mps 758 mmHg 78%
    21:00 +12°C° 0 mm 2 mps 758 mmHg 78%
    22:00 +12°C° 0 mm 2 mps 758 mmHg 79%
    23:00 +12°C° 0 mm 1 mps 758 mmHg 80%
    Mostrar más